{"data":{"norad_id":52682,"epoch":"2026-05-25T01:31:06.271392Z","epoch_age_seconds":65506,"freshness":"FRESH","line1":"1 52682U 22053AC  26145.06326703 -.00001649  00000+0 -85573-4 0  9993","line2":"2 52682  53.2141 161.2688 0001160  66.6293 293.4821 15.08837600222680","mean_motion":15.088376,"eccentricity":0.000116,"inclination_deg":53.2141,"raan_deg":161.2688,"arg_perigee_deg":66.6293,"mean_anomaly_deg":293.4821,"bstar":-8.5573e-5,"rev_number":22268,"period_min":95.437706483455,"perigee_km":538.94824983761,"apogee_km":540.55319978977,"semimajor_km":6917.8877248137,"source":"CELESTRAK","updated_at":"2026-05-25T13:38:17.234868Z"}}